CAPE
0 0 0 0 0 0 0 0 0 0 0 0 0 0 0 0 6 4 33 161 126 27 123 244 77 75 67 530 859 882 922 1080 703 577 418 426 454 359 342 495 815 1165 1545 1087 1294 1866 1863 2186 1824 2277 2410 2685 2922 2807 2450 2726 2861 2352 2453 2434 2184 2210 2128 2126 1481 1550 2154 2000 2139 1821 1530 1370 1447 1717 2518 2527 2296 1900 1931 1898 1721 2067 1871 1624 1410 1506
0 0 0 0 0 0 0 0 0 0 0 0 0 0 0 4 4 0 3 0 226 0 47 69 201 202 325 697 751 1190 1125 630 467 535 333 338 438 684 891 767 1262 1018 1190 1460 1905 2075 2564 2944 2439 2447 2507 2665 2852 3220 3238 2678 2755 3148 3016 2882 2234 2016 1734 1783 2101 2268 2349 1961 2362 2131 1959 1632 1232 1456 1657 1788 2169 2205 1867 2074 2115 2174 1974 1682 1804 1929
0 0 0 0 0 0 0 0 0 0 0 0 0 0 0 0 0 105 120 35 28 1 347 195 106 123 313 688 754 813 774 696 696 724 494 416 858 569 857 881 914 1024 1618 1989 2181 2607 2729 2866 2646 2272 2535 2427 2405 2315 2003 3132 3221 3166 3076 3332 2886 2554 1949 1908 2448 2226 2258 2360 2241 1986 1666 1422 1337 1048 1369 1954 1852 2945 2836 2539 2546 2065 2122 2076 2294 2032
0 0 0 0 0 0 0 0 0 0 0 0 0 0 2 0 0 92 286 24 8 0 542 512 159 62 372 648 782 599 652 1004 1649 1282 493 398 812 503 599 829 702 1098 1280 1582 2008 2414 2577 2847 2764 2144 1885 1677 1195 1983 1830 2072 2342 2699 3202 2868 2926 3019 2798 2468 2288 2080 2383 2152 1928 1956 2080 1462 1536 1492 1441 1708 2212 2372 2456 2232 2120 1792 2141 2180 2056 1869
0 0 0 0 0 0 0 0 0 0 0 0 0 0 2 0 0 0 263 131 27 29 4 28 110 188 542 374 806 1679 1484 1558 1125 1391 861 875 1244 785 638 667 573 1092 1191 1180 2060 2444 2168 2268 2332 2482 2329 1911 1846 1943 1952 2124 2495 2466 2502 2727 2840 2969 2497 2256 2958 2914 2646 2454 1751 1459 1551 1305 1751 1722 2292 2427 2610 2464 2586 2658 2582 2871 2091 1935 2314 1888
0 0 0 0 0 0 0 0 0 0 0 0 0 0 0 0 0 0 0 0 0 36 44 141 0 481 818 561 898 1514 1459 1372 1482 1487 1265 1737 1057 861 507 594 1033 1248 1133 1194 1828 1994 2174 1846 1669 1751 1906 1891 2096 1902 2287 2460 2304 2436 2614 2673 2882 3078 2874 2425 2578 2925 3167 3082 3188 2935 3078 2787 3000 2772 2236 2268 2246 2049 2431 2987 3041 2380 2146 1971 1670 1992
0 0 0 0 0 0 0 0 0 0 0 0 0 0 0 0 0 0 0 0 0 0 83 0 0 30 1010 846 711 1000 1030 1335 1045 1544 1609 1785 1152 996 996 881 1165 1496 1549 1105 1566 1984 1463 1674 1835 1992 2066 2056 2086 2267 2542 2528 2338 2386 2715 2790 2591 2666 2732 2546 2764 2781 3097 3010 2999 2674 2431 2365 2368 2360 2708 2859 2648 2410 2630 2582 2645 2883 2680 1943 1916 1862
0 0 0 0 0 0 0 0 0 0 0 0 0 0 0 0 0 0 0 0 0 0 0 26 0 22 356 547 368 552 1045 1444 1180 1136 1521 1547 1152 622 966 972 1189 1615 2008 2025 1997 2151 1909 1864 1822 2136 2108 2160 2394 2477 2782 2391 2651 2706 2705 2286 2436 2620 2788 2846 2882 2730 2824 2761 2931 2729 2506 2731 2505 2201 2694 2388 2664 2850 3116 3093 2528 3294 3868 2866 2448 2276
0 0 0 0 0 0 0 0 0 0 0 0 0 0 0 0 0 0 0 0 0 0 0 0 0 180 620 766 693 1085 1058 1232 1094 1252 1270 1261 1072 811 779 1251 1377 1740 1917 1928 2014 1876 2186 2313 2216 1970 2229 2254 2405 2774 2754 2571 2519 2555 2575 2686 2532 2883 2870 2784 2674 2777 2754 2907 2776 2806 2635 2735 2534 2400 2583 2238 2151 2610 2606 2066 2604 2601 2745 2589 2649 2928
0 0 0 0 0 0 0 0 0 0 0 0 0 0 0 0 0 0 0 0 0 0 1 2 6 11 357 999 742 535 1164 1097 1041 1257 1118 950 992 1367 1397 1427 1593 1428 1380 1764 2030 2418 2423 2312 1918 1716 2253 2300 2468 2840 2841 2777 2658 2582 2677 2748 2811 2668 2819 2915 2839 2755 2777 2681 2906 2747 2653 2458 2607 2642 2813 2545 2629 2737 2756 2596 2514 2620 2923 2482 2327 2415
0 0 0 0 0 0 0 0 0 0 0 0 0 0 0 0 0 0 0 0 0 60 110 6 4 1 636 878 899 765 496 773 1167 1065 1032 985 1021 909 930 709 1673 1397 1418 1329 1760 2268 2099 2294 2516 2795 2742 2680 2703 2544 2699 2616 2566 2549 2660 2750 2627 2732 2855 2527 2356 2427 2462 2565 2469 2497 2515 2428 2422 2392 2403 2560 2612 2631 2546 2743 2542 2737 2840 2775 2257 2566
0 0 0 0 0 0 0 0 0 0 0 0 0 0 0 0 0 0 0 14 87 1 0 0 0 0 39 1226 982 638 689 812 1227 1436 999 1272 889 793 848 773 764 1290 1710 1640 1900 2290 2370 2298 2836 2880 2778 2689 2560 2436 2376 2322 2458 2323 2342 2538 2329 2219 2186 2017 1904 1870 1925 1876 1907 1917 1774 1790 1834 1809 1696 1772 1775 2044 2377 2415 2620 2916 3028 2564 2462 2727
0 0 0 0 0 0 0 0 0 0 0 0 0 0 0 0 0 0 10 16 11 4 4 0 0 10 80 271 97 312 372 470 833 1132 1161 1124 1021 853 845 786 675 1500 1397 1753 2110 2352 2105 2266 2345 2558 2639 2354 2161 2306 2151 2160 1727 1520 1686 1728 1812 1960 2132 2113 1900 1797 1815 1719 1618 1471 1494 1444 1556 1324 1234 1374 817 1291 1406 1988 1775 2227 2551 2734 2621 2486
0 0 0 0 0 0 0 0 0 0 0 0 0 0 0 0 0 2 1 0 0 2 2 3 1 46 270 155 341 154 188 609 723 848 1331 1144 900 1077 1037 910 1104 1396 1430 1270 1471 1589 1515 2240 2310 2584 2342 2250 2179 1776 1748 1434 1340 1254 1312 1532 1596 1822 1938 1869 1714 1620 1598 1674 1655 1587 1355 1251 1082 916 744 832 949 1022 1345 1489 1251 1444 1344 1633 1794 1762
0 0 0 0 0 0 0 0 0 0 0 0 7 0 2 0 0 0 12 2 0 0 0 0 0 48 57 1004 526 148 198 256 667 615 872 1495 1468 1164 1084 1037 1433 1226 755 1162 891 1116 1217 1688 2055 2223 2000 1876 1699 1314 1034 1196 1145 971 1007 1336 1529 1613 1632 1757 1866 1749 1704 1774 1708 1766 1620 1402 1327 1208 1008 1359 1496 1438 1256 1418 988 1356 879 642 1119 1783
0 0 0 0 0 0 0 0 0 0 0 0 0 0 0 0 0 0 0 0 0 0 0 57 251 580 858 688 514 546 223 324 440 970 1532 1336 1322 1046 964 774 1077 1297 1314 1257 974 1316 1677 1668 1793 1762 1715 1662 1313 932 826 667 882 840 1256 1347 1500 1473 1407 1522 1495 1523 1520 1469 1412 1332 1538 1185 1461 1386 1421 1328 1409 1227 911 1146 1131 919 732 768 896 1131
0 0 0 0 0 0 0 0 0 0 0 0 0 1 7 0 0 0 0 0 0 0 26 0 468 466 580 958 835 388 283 997 1335 1117 1665 1561 1447 1120 1000 1041 1022 1065 1113 1189 1415 1557 1430 1019 1117 938 736 697 484 598 553 790 641 822 945 924 1208 1126 1085 1292 1292 1288 1342 1188 1132 1063 972 1102 790 636 479 694 828 908 1030 1120 1119 850 914 872 960 623
0 1 0 0 0 0 0 0 0 0 0 0 0 0 0 0 0 0 0 0 0 0 49 0 19 39 394 564 367 870 1208 1015 1291 1283 1183 840 1111 1002 1068 1190 1059 1051 1028 1086 954 1201 669 730 502 289 264 296 311 359 435 776 481 794 730 567 763 921 955 863 970 1080 1028 1000 941 956 695 720 821 580 679 810 824 904 853 991 987 962 739 922 919 692
0 0 0 0 0 0 0 0 0 0 0 0 0 0 0 0 0 0 0 1 0 0 0 0 370 1063 1194 1020 803 953 1017 968 918 988 1062 964 799 743 930 926 1095 1228 1270 1477 1282 708 711 404 283 321 238 377 512 480 497 858 763 521 436 680 727 807 829 718 794 962 946 792 941 858 861 486 744 1013 1009 910 855 877 840 785 849 844 835 859 710 843
0 0 0 0 0 0 0 0 0 0 0 0 0 0 0 0 2 0 0 0 0 0 0 10 695 894 1139 1394 934 1262 1080 789 716 1009 1098 1124 1108 889 893 925 1140 993 907 1282 1204 362 269 80 81 130 225 322 422 380 410 472 582 558 452 391 581 854 903 855 1046 839 856 760 987 916 980 883 976 1100 940 864 844 713 720 780 824 914 657 589 739 899
0 0 0 0 0 0 0 0 0 0 0 0 0 0 0 0 0 0 0 1 1 0 0 15 506 838 1100 1552 1247 998 1132 873 916 1193 1256 1039 916 1016 866 1246 1073 1076 1066 1215 812 336 268 206 269 299 352 545 546 515 572 500 533 585 702 366 331 569 489 690 714 701 534 747 731 770 686 708 811 889 854 889 698 700 615 774 860 749 737 770 1055 790
0 0 0 0 0 0 0 0 0 0 0 0 0 0 0 0 2 0 13 0 0 0 2 10 742 768 1397 1668 1470 1356 1246 1308 1253 1341 1398 1434 1232 1137 1283 1014 764 853 1521 1617 308 281 312 445 366 529 667 781 862 893 691 398 589 589 534 425 425 361 297 350 161 805 628 596 665 810 583 677 728 746 819 793 932 846 451 493 737 807 727 365 687 779
0 0 0 0 0 0 0 0 0 0 0 0 0 0 0 0 0 10 4 2 0 0 0 12 385 1176 1306 1512 1481 1776 1450 1200 1443 1510 1308 1139 1275 1382 1269 1115 1149 1336 1768 1136 1160 1310 1163 923 919 1061 824 780 1037 1018 1010 1008 1039 583 436 466 445 370 247 57 211 272 550 641 503 377 383 556 662 520 572 602 763 807 738 326 482 664 732 705 542 400
0 0 0 0 0 0 0 0 0 0 0 0 0 0 0 6 10 2 57 40 0 1 6 337 1020 850 1334 1492 1556 1494 1496 1300 1400 1462 1404 1209 1092 1215 1273 1325 1652 2068 2982 1559 1446 1331 1257 1207 1299 1246 1442 1589 1384 946 861 1294 1441 1292 1083 747 150 119 205 284 270 478 488 560 244 135 137 92 316 632 544 532 521 691 722 689 628 512 491 598 596 620
0 0 0 0 1 7 0 0 0 8 0 0 0 0 0 8 48 67 15 38 18 8 9 296 380 879 1146 1610 1638 1321 1262 1320 1370 1355 1318 1273 1285 1277 1440 1620 1620 1951 1948 1222 1346 1357 1392 1295 1258 1413 1568 1550 1520 1486 1253 940 1495 1347 1242 496 162 162 115 82 347 240 272 428 384 370 397 425 488 554 539 451 477 590 635 678 497 477 314 455 380 619
0 0 0 0 0 2 0 0 156 98 30 2 0 0 0 19 130 105 143 78 66 614 593 507 860 860 1181 1322 1308 1344 1278 1316 1178 1301 1526 1464 1399 1273 1360 1298 1708 1741 1178 1189 1152 1125 999 1306 1453 1518 1518 1488 1446 1538 1128 1144 767 909 429 468 83 55 57 65 16 236 194 73 138 432 341 459 479 401 443 473 428 551 518 523 509 472 325 449 638 683
0 0 2 0 0 0 86 5 17 0 0 0 0 0 0 32 104 82 106 81 221 227 825 807 568 687 780 949 817 1116 1177 1205 1047 1116 1234 1129 1301 1314 1256 1286 1414 1469 1207 970 1024 1183 1448 1350 1303 1488 1232 1112 1343 1757 644 692 531 461 528 518 254 311 303 300 269 618 547 98 85 254 308 281 317 392 325 267 386 514 495 390 352 422 420 582 612 588
0 0 0 0 0 0 0 0 0 0 0 0 0 18 25 53 63 128 30 351 404 24 803 828 594 502 578 865 760 967 909 875 873 898 806 873 861 1071 1322 1201 1244 1198 1020 1095 1097 1123 1252 1219 1424 1492 1340 1413 1562 900 662 473 472 598 546 429 595 562 588 494 571 426 435 427 241 341 133 354 244 271 448 536 662 638 484 403 382 408 445 482 520 408
0 0 0 0 0 0 0 0 0 0 0 0 0 1 112 111 58 225 41 162 260 433 486 549 505 828 588 999 881 779 810 777 628 778 580 680 720 905 1067 1004 945 1209 1250 1158 1141 1198 1008 1184 1228 1247 1266 1258 1463 972 663 606 581 676 600 610 764 455 585 559 622 550 271 402 431 384 269 410 240 253 388 536 594 591 520 466 422 446 450 478 516 385
0 0 0 0 0 0 0 0 23 36 18 29 52 91 164 45 57 33 112 63 18 506 278 525 484 725 767 921 1025 970 725 695 551 497 546 431 409 605 471 634 547 657 892 1004 1175 1074 889 722 704 1032 804 870 543 655 664 717 699 710 626 579 628 696 677 696 584 661 582 546 442 458 410 516 456 423 376 411 395 458 542 485 473 362 335 410 446 398
0 0 0 0 0 0 0 0 7 14 11 54 586 383 119 56 88 50 4 229 58 61 321 409 623 1189 1107 1344 1269 982 796 743 1028 918 570 540 386 894 542 688 780 788 866 935 938 879 666 698 502 436 432 422 517 653 652 632 429 437 455 478 644 646 637 626 677 662 426 622 529 613 574 404 338 352 398 374 341 377 440 516 467 451 422 412 389 497
0 0 0 0 0 1 1 0 12 33 63 27 550 305 208 105 134 48 3 173 276 210 236 320 720 1046 1119 1176 1361 864 735 976 736 774 1067 882 848 227 409 733 751 750 294 258 405 394 398 538 452 629 762 634 616 585 537 662 435 398 422 560 550 613 668 688 647 577 587 425 424 376 329 198 179 214 236 257 300 324 373 426 408 430 445 381 379 424
0 0 0 18 104 119 29 0 0 4 30 455 627 395 44 172 235 242 159 169 172 295 420 504 675 700 1162 1169 985 726 698 710 477 500 482 227 247 149 152 142 70 105 70 74 165 360 376 392 455 661 491 503 727 768 404 499 476 369 484 544 562 565 555 496 454 433 356 217 186 143 95 65 29 101 129 165 216 274 322 356 366 375 336 341 357 402
0 0 0 0 0 4 0 10 41 36 227 1133 579 364 384 74 56 99 259 358 321 371 356 265 543 1050 1051 932 784 965 555 422 373 388 331 301 196 166 87 90 110 122 159 212 217 143 280 455 548 593 598 548 450 503 398 414 394 429 477 488 502 381 407 284 246 144 114 42 60 19 9 25 48 81 119 159 183 227 219 218 221 178 184 254 311 337
0 0 0 0 0 0 0 24 67 177 1218 479 549 346 143 285 283 329 376 705 540 579 469 707 801 703 798 677 602 530 479 398 468 241 101 4 39 107 53 1 20 0 27 180 310 388 402 372 496 412 514 510 533 540 481 421 261 309 287 247 282 179 219 72 78 41 3 2 10 15 10 15 30 66 78 113 122 160 168 215 220 186 200 163 168 216
0 0 0 0 0 0 0 3 10 1260 569 460 226 322 117 68 31 89 850 809 976 1050 770 681 809 789 525 553 643 426 324 263 99 23 5 2 1 2 0 0 10 4 7 38 325 244 326 245 312 323 530 518 443 386 313 212 156 227 221 183 97 68 12 1 4 5 2 3 9 11 17 21 36 60 57 67 124 124 131 148 162 192 124 99 152 92
0 0 0 0 0 0 5 14 930 490 655 333 310 308 130 260 219 283 510 974 727 792 862 694 504 520 310 450 382 519 464 303 279 63 8 2 1 0 0 0 1 1 2 8 2 13 85 114 182 183 328 279 286 209 141 28 94 140 81 0 6 8 0 1 2 0 3 6 4 12 24 37 54 77 66 88 106 87 94 128 157 219 162 117 93 66
0 0 0 0 0 0 0 5 663 625 564 379 464 429 267 84 49 241 561 763 716 793 537 652 681 738 858 440 352 429 470 255 64 41 0 0 0 0 0 0 0 0 0 0 1 0 3 18 60 42 92 69 35 2 1 0 6 26 3 0 4 0 0 0 4 1 0 9 5 19 55 63 94 78 98 111 137 107 131 154 183 232 189 183 181 168
0 0 78 0 3 3 1 0 178 586 936 681 601 448 328 216 234 260 227 716 901 883 879 909 719 602 602 528 375 685 674 261 50 41 0 0 3 1 0 0 0 0 0 4 7 0 0 1 17 16 20 0 0 0 0 0 0 0 0 0 1 0 0 1 4 8 5 12 14 24 75 69 141 173 157 185 195 123 126 196 204 273 268 266 206 220
0 0 0 0 0 0 0 0 204 770 951 544 369 212 180 210 128 171 167 300 768 906 508 524 408 538 467 339 201 75 50 89 39 12 3 0 0 3 2 0 0 0 0 0 1 0 0 7 3 7 3 3 0 0 0 0 0 0 0 1 2 1 0 6 12 21 18 19 28 40 61 38 114 148 155 170 167 126 185 193 236 252 232 271 102 70
0 0 0 0 0 0 5 203 412 539 403 161 230 118 313 179 194 176 354 621 714 551 365 406 282 266 102 39 16 18 0 0 0 0 0 1 2 0 0 2 0 0 0 0 0 1 0 1 0 0 0 0 1 0 0 0 0 0 2 5 9 5 0 11 21 19 20 25 27 35 39 52 113 60 79 146 134 140 155 220 214 260 129 164 152 93
23 0 7 33 27 48 124 318 553 540 436 40 160 177 234 212 338 963 684 610 626 315 197 186 102 26 0 0 0 0 0 0 0 0 0 0 0 0 0 0 0 0 0 0 3 0 0 0 0 0 0 0 0 0 0 0 1 0 8 5 3 4 7 24 20 21 22 26 27 35 31 54 89 25 33 40 112 112 99 176 167 64 85 146 57 2
722 88 135 321 665 92 597 206 267 585 535 394 74 228 488 837 627 585 531 341 233 87 30 3 0 0 0 0 0 1 0 0 0 0 0 0 0 0 0 0 0 0 0 3 2 0 0 0 0 0 0 0 0 0 0 0 2 0 6 0 6 3 20 24 15 21 24 22 37 32 33 51 38 33 22 30 48 62 64 85 63 50 68 33 8 8
843 455 586 526 688 436 641 801 638 439 419 372 583 606 344 501 371 344 192 114 105 37 6 0 0 0 0 0 0 0 0 0 0 7 3 0 1 2 1 2 3 0 3 3 0 0 0 0 0 0 0 0 0 0 0 0 0 0 0 1 9 10 22 8 14 26 14 21 32 28 37 46 34 37 25 47 51 48 42 39 28 45 36 24 8 9
645 929 775 777 519 732 784 588 409 326 266 297 320 279 275 270 217 127 92 33 7 0 0 0 0 0 0 0 0 0 0 0 0 0 0 0 0 11 5 2 0 0 0 0 0 0 0 0 0 0 0 0 0 0 7 1 0 2 1 7 3 23 10 3 14 10 8 25 36 24 42 30 31 38 42 45 48 52 28 16 33 38 25 7 4 6
409 429 528 446 279 254 237 218 132 98 77 68 69 54 28 4 0 0 0 0 0 0 0 0 0 0 0 0 0 0 0 0 0 0 0 0 0 0 2 0 3 0 0 0 0 0 0 0 1 0 0 0 0 2 6 2 0 7 0 8 12 9 0 14 18 13 18 28 21 26 40 10 26 44 48 46 41 56 41 27 32 40 14 0 0 3
112 274 370 351 222 370 149 142 68 29 2 0 0 0 0 0 0 0 0 0 0 0 0 0 0 0 0 0 0 0 0 0 0 0 2 6 0 0 1 3 0 0 0 0 0 0 0 0 0 0 0 0 1 0 0 0 3 14 8 20 5 2 16 26 18 16 15 28 5 25 9 4 19 62 52 35 17 27 29 36 36 25 18 2 4 2
181 10 295 375 335 306 196 107 31 8 6 0 0 0 0 0 0 0 0 0 0 0 0 0 0 0 0 0 0 0 2 0 0 0 6 5 2 0 0 0 0 0 0 0 0 0 0 0 0 0 0 2 4 6 1 4 15 20 12 8 0 8 12 18 12 4 9 3 9 16 0 0 1 42 36 58 48 18 29 40 18 22 29 14 5 10
83 248 615 412 348 245 145 77 32 19 9 4 0 1 0 0 0 0 0 0 0 0 0 0 0 0 0 0 6 1 4 1 6 0 2 1 2 3 0 0 0 0 0 4 0 0 0 0 0 1 0 2 6 8 11 12 24 29 4 7 8 29 23 16 12 14 9 5 19 4 0 1 7 24 21 35 27 20 94 51 33 38 44 18 17 6
321 515 348 358 213 267 166 104 4 18 9 1 0 0 0 0 0 0 0 0 0 0 0 0 0 0 0 0 0 6 4 11 10 2 0 10 6 0 0 0 0 0 0 0 0 0 0 0 0 0 0 0 20 20 16 22 34 24 1 13 10 26 27 12 7 7 10 11 9 0 0 8 15 24 33 13 21 12 25 54 43 166 43 61 11 0
541 456 447 390 301 297 166 94 112 48 10 4 0 0 0 0 0 0 0 0 0 0 0 0 0 0 0 0 0 7 8 6 0 0 0 3 3 2 0 0 0 0 0 0 0 0 3 2 1 0 1 4 17 28 21 25 12 12 4 23 21 22 26 13 12 8 1 6 0 0 0 6 15 25 33 12 7 20 25 19 81 41 19 17 12 3
Wind_Speed
nan nan nan nan nan nan nan nan nan nan nan nan nan nan nan nan nan nan nan 41 42 nan 32 32 nan nan nan 39 31 20 16 23 24 21 16 13 13 7 13 10 12 13 12 14 13 12 9 10 11 10 16 20 28 33 32 29 22 19 19 21 19 17 16 15 16 17 18 19 18 17 16 14 11 8 7 13 11 8 9 11 10 9 6 12 6 6
nan nan nan nan nan nan nan nan nan nan nan nan nan nan nan nan nan nan nan nan 42 nan nan nan 27 25 31 36 29 23 19 20 28 25 20 15 8 7 10 13 11 9 11 13 13 14 15 12 13 12 13 14 17 22 28 29 30 31 30 27 25 30 29 20 17 19 18 19 18 13 10 10 13 9 4 6 9 13 13 11 13 12 10 7 10 10
nan nan nan nan nan nan nan nan nan nan nan nan nan nan nan nan nan 35 36 nan nan nan 32 28 20 28 31 31 29 23 14 16 22 19 24 17 17 12 15 9 12 13 12 13 14 14 14 14 15 18 17 16 20 22 20 25 26 26 25 24 23 29 36 33 27 23 21 20 16 12 8 5 4 4 6 7 12 14 14 12 10 10 7 10 10 11
nan nan nan nan nan nan nan nan nan nan nan nan nan nan nan nan nan nan 32 nan nan nan 29 27 21 nan 33 28 33 25 16 17 13 9 22 21 21 20 16 13 12 15 15 15 15 14 14 18 19 18 18 18 15 16 18 19 21 22 21 20 21 21 25 31 33 32 28 24 20 15 9 6 11 13 17 17 12 9 10 10 11 14 13 11 9 8
nan nan nan nan nan nan nan nan nan nan nan nan nan nan nan nan nan nan 26 36 nan nan nan nan 26 31 34 31 34 27 23 22 15 12 18 19 16 21 15 15 13 13 15 12 14 16 17 17 19 19 19 20 20 18 16 15 16 16 17 18 17 18 19 21 20 19 22 26 29 27 26 25 23 19 16 13 13 12 11 13 12 12 11 10 9 8
nan nan nan nan nan nan nan nan nan nan nan nan nan nan nan nan nan nan nan nan nan nan nan 42 nan 33 36 33 31 27 26 25 21 18 19 12 14 17 17 13 12 12 13 13 16 16 18 18 20 22 23 21 19 17 17 17 16 16 17 16 18 18 18 18 17 16 16 16 14 14 14 12 12 10 9 8 6 9 8 10 13 12 13 13 13 14
nan nan nan nan nan nan nan nan nan nan nan nan nan nan nan nan nan nan nan nan nan nan nan nan nan nan 35 34 26 30 29 28 25 24 20 13 11 17 16 11 12 11 11 12 12 14 15 18 20 21 20 21 20 18 18 18 17 17 18 17 15 16 17 17 17 16 14 13 12 10 9 8 7 6 8 8 10 11 12 11 12 14 14 15 15 14
nan nan nan nan nan nan nan nan nan nan nan nan nan nan nan nan nan nan nan nan nan nan nan nan nan nan 30 33 31 36 39 30 24 22 20 13 9 15 15 12 11 12 10 11 12 12 15 17 19 21 21 19 19 18 17 17 16 16 16 16 16 16 16 16 16 17 15 13 12 10 9 8 7 6 6 9 12 14 14 11 10 12 12 13 14 13
nan nan nan nan nan nan nan nan nan nan nan nan nan nan nan nan nan nan nan nan nan nan nan nan nan 21 28 35 36 44 44 36 26 21 19 12 9 16 16 15 9 9 7 10 11 14 16 19 21 22 22 21 20 18 18 16 16 16 16 18 16 16 16 16 17 16 15 15 14 13 11 9 9 7 8 10 13 14 13 11 11 10 10 10 13 15
nan nan nan nan nan nan nan nan nan nan nan nan nan nan nan nan nan nan nan nan nan nan nan nan nan nan 26 35 33 37 44 42 31 27 23 18 12 17 17 19 11 13 10 2 12 14 15 18 21 21 22 22 20 19 17 17 17 17 17 16 17 17 16 16 16 16 17 16 15 15 13 12 11 10 11 13 14 14 12 11 11 11 11 10 9 10
nan nan nan nan nan nan nan nan nan nan nan nan nan nan nan nan nan nan nan nan nan nan 11 nan nan nan 22 32 33 33 33 41 36 30 27 24 22 19 20 15 19 14 17 8 14 15 16 17 18 21 21 20 21 19 19 18 17 18 18 18 18 18 18 18 17 17 17 17 16 15 15 14 13 13 13 13 14 13 12 11 10 11 10 10 11 11
nan nan nan nan nan nan nan nan nan nan nan nan nan nan nan nan nan nan nan nan nan nan nan nan nan nan nan 28 29 31 32 36 35 34 32 28 29 23 21 20 23 20 23 15 16 17 17 18 20 21 22 22 21 20 20 19 19 19 19 19 20 19 19 18 18 18 17 17 16 15 15 14 14 14 14 14 13 13 12 12 11 11 12 11 11 13
nan nan nan nan nan nan nan nan nan nan nan nan nan nan nan nan nan nan nan nan nan nan nan nan nan nan nan 27 nan 41 35 32 28 29 31 32 36 30 22 26 26 23 19 18 14 12 10 16 20 22 24 23 23 22 22 21 20 20 20 20 21 20 19 19 19 19 18 17 16 15 14 13 13 13 14 15 13 12 12 13 11 12 12 12 13 13
nan nan nan nan nan nan nan nan nan nan nan nan nan nan nan nan nan nan nan nan nan nan nan nan nan nan 29 29 34 39 31 42 36 27 33 33 36 37 27 23 24 26 19 19 16 12 8 15 20 22 25 24 24 23 22 21 20 20 21 21 22 21 20 20 20 20 19 18 16 15 14 13 12 12 13 15 14 12 13 13 12 12 13 12 13 12
nan nan nan nan nan nan nan nan nan nan nan nan nan nan nan nan nan nan nan nan nan nan nan nan nan nan nan 24 21 29 38 42 42 27 29 34 34 36 32 26 26 21 26 24 14 10 14 18 20 24 26 26 26 25 22 21 21 20 21 21 21 22 21 21 20 20 20 18 16 15 14 13 12 12 13 13 14 13 13 14 12 13 14 14 13 13
nan nan nan nan nan nan nan nan nan nan nan nan nan nan nan nan nan nan nan nan nan nan nan nan 23 28 32 24 25 23 26 37 44 36 32 32 30 32 29 26 27 27 27 22 18 10 16 19 21 23 25 27 27 25 23 24 22 22 22 21 21 22 21 21 20 19 19 18 17 14 13 14 11 12 12 13 12 12 13 13 13 14 14 14 14 15
nan nan nan nan nan nan nan nan nan nan nan nan nan nan nan nan nan nan nan nan nan nan nan nan 26 31 36 31 27 30 31 31 37 36 34 31 29 28 27 25 29 34 31 25 11 11 15 18 21 23 26 29 28 25 25 24 23 23 22 22 22 23 22 22 21 20 18 17 18 16 14 15 13 14 13 13 12 11 12 13 13 15 15 14 14 15
nan nan nan nan nan nan nan nan nan nan nan nan nan nan nan nan nan nan nan nan nan nan nan nan nan nan 30 31 22 29 38 37 34 34 34 33 30 25 24 27 31 33 30 18 6 7 13 16 22 25 29 32 30 28 25 23 23 23 24 25 24 24 24 24 22 22 19 17 18 17 17 16 16 15 15 15 14 15 15 14 16 17 16 16 17 17
nan nan nan nan nan nan nan nan nan nan nan nan nan nan nan nan nan nan nan nan nan nan nan nan 27 33 36 32 32 32 33 37 39 40 39 36 31 23 21 24 28 25 19 9 4 13 18 22 25 27 31 33 32 30 28 25 25 27 27 28 27 26 26 25 24 22 21 20 19 19 20 20 18 19 18 19 18 19 17 17 20 18 18 19 20 19
nan nan nan nan nan nan nan nan nan nan nan nan nan nan nan nan nan nan nan nan nan nan nan nan 32 29 28 28 29 38 33 37 39 41 43 43 42 37 31 25 23 19 16 16 18 31 33 nan nan 30 31 32 32 30 28 25 26 29 32 31 28 27 27 26 26 23 22 20 21 20 22 22 22 22 23 22 22 22 21 21 22 22 21 21 20 23
nan nan nan nan nan nan nan nan nan nan nan nan nan nan nan nan nan nan nan nan nan nan nan nan 29 29 25 21 27 40 40 36 39 41 39 39 40 41 41 32 29 30 31 27 29 39 40 38 35 33 32 31 31 30 29 27 26 27 26 27 27 27 22 25 24 25 22 21 21 21 25 24 24 24 25 24 24 24 24 25 25 24 24 24 24 23
nan nan nan nan nan nan nan nan nan nan nan nan nan nan nan nan nan nan nan nan nan nan nan nan 32 25 26 24 26 35 40 39 41 44 39 37 34 27 29 28 29 28 24 22 31 38 40 39 39 37 34 32 30 30 31 29 29 30 27 28 27 26 23 23 23 26 24 23 22 23 26 26 26 28 27 27 28 28 27 27 29 27 25 26 26 26
nan nan nan nan nan nan nan nan nan nan nan nan nan nan nan nan nan nan nan nan nan nan nan nan 33 29 25 25 29 35 38 38 37 39 37 36 35 33 31 32 30 25 22 24 31 33 36 36 37 37 36 34 33 32 30 30 28 28 27 27 27 28 26 nan 25 27 27 25 24 26 28 28 30 29 29 30 31 31 31 30 30 31 30 28 29 28
nan nan nan nan nan nan nan nan nan nan nan nan nan nan nan nan nan nan nan nan nan nan nan 26 32 31 29 28 35 38 39 37 34 36 39 37 36 34 34 31 28 25 23 29 30 33 33 33 33 33 34 33 34 32 29 29 29 26 28 25 29 27 29 31 30 32 29 28 26 29 29 nan 31 31 32 32 33 33 33 34 33 32 32 33 32 30
nan nan nan nan nan nan nan nan nan nan nan nan nan nan nan nan nan nan nan nan nan nan nan 34 31 32 31 32 33 36 38 39 38 36 36 37 36 35 34 31 30 30 29 33 32 32 32 32 31 29 31 29 29 30 30 33 30 31 30 28 33 32 33 nan 34 35 33 31 31 32 33 32 33 33 34 33 34 34 34 34 34 34 34 35 33 33
nan nan nan nan nan nan nan nan 13 nan nan nan nan nan nan nan 16 19 17 nan nan 26 37 32 33 33 37 35 35 34 36 38 37 37 35 34 34 35 34 33 32 30 31 33 33 32 31 31 30 29 28 26 26 28 32 35 34 32 34 32 nan nan nan nan nan 37 34 nan 35 36 35 35 35 36 35 35 35 36 36 36 36 36 36 36 35 35
nan nan nan nan nan nan nan nan nan nan nan nan nan nan nan nan 19 nan 20 nan 27 23 39 33 35 39 36 36 36 33 34 36 37 35 34 32 32 32 32 32 31 30 32 32 33 31 32 31 31 30 28 30 28 30 36 38 37 36 38 37 38 37 38 37 38 38 37 nan nan 37 37 37 37 37 38 37 37 38 38 37 37 37 37 38 37 36
nan nan nan nan nan nan nan nan nan nan nan nan nan nan nan nan nan 17 nan 23 26 nan 34 34 33 35 34 34 35 34 34 33 31 30 30 30 32 33 33 33 32 32 33 31 32 31 30 31 31 30 30 31 32 34 37 39 37 39 38 39 39 39 38 38 37 37 37 38 38 39 38 40 39 39 40 40 40 40 39 39 38 38 38 39 38 38
nan nan nan nan nan nan nan nan nan nan nan nan nan nan 15 23 nan 18 nan 34 37 33 35 38 36 34 33 37 38 39 37 34 31 30 30 32 34 35 34 31 31 31 32 30 30 30 32 32 34 35 34 34 36 37 39 40 38 40 41 40 42 39 39 39 39 38 38 39 40 41 41 41 40 41 41 41 42 41 40 40 39 39 39 38 38 38
nan nan nan nan nan nan nan nan nan nan nan nan nan nan 19 nan nan nan 27 nan nan 42 35 39 35 34 32 35 37 35 36 36 35 33 32 34 32 34 29 29 31 33 32 32 31 33 35 37 37 39 38 39 38 39 39 40 40 40 40 40 40 40 40 41 41 40 41 41 42 42 41 42 42 42 42 41 41 41 41 40 40 38 38 37 37 37
nan nan nan nan nan nan nan nan nan nan nan nan 29 32 22 nan nan nan nan 34 nan nan 30 35 33 32 32 35 37 37 32 32 31 32 32 32 30 38 38 36 37 38 36 34 33 34 36 39 37 38 39 38 38 40 39 38 38 39 38 38 39 40 40 40 41 41 41 42 43 43 43 43 43 42 42 41 40 41 40 39 39 39 37 37 37 37
nan nan nan nan nan nan nan nan nan nan nan nan 34 28 25 27 22 nan nan 36 27 19 21 29 32 30 32 33 33 34 31 28 30 28 29 31 32 38 37 40 39 39 38 39 39 38 39 39 38 38 38 38 41 41 39 40 38 39 38 38 39 39 40 40 41 41 42 43 43 43 43 43 42 42 41 41 41 40 40 40 40 39 39 38 38 38
nan nan nan nan 10 9 nan nan nan nan nan 26 29 28 nan 30 26 19 30 35 27 24 26 30 31 28 30 33 31 27 28 29 28 25 26 30 33 35 35 37 nan 39 nan nan 43 42 40 40 41 42 43 45 43 44 41 42 41 40 40 40 40 41 42 43 43 43 44 44 44 44 nan nan nan 43 43 43 43 43 43 43 43 42 41 40 40 39
nan nan nan nan nan nan nan nan nan nan 17 28 25 27 26 nan nan nan 36 37 32 27 29 33 32 31 28 30 28 27 29 30 32 32 32 33 33 39 nan nan 40 40 42 41 40 41 42 43 45 46 48 49 47 46 45 45 44 43 43 43 44 46 46 46 46 46 46 nan nan nan nan nan nan nan 45 46 46 46 45 45 45 44 44 43 42 42
nan nan nan nan nan nan nan nan nan 15 30 32 33 25 19 23 34 38 39 37 29 29 36 35 31 25 26 30 30 31 32 32 30 32 34 nan nan 40 nan nan nan nan nan 42 41 42 44 46 47 48 49 48 48 48 48 47 46 46 46 47 47 49 49 nan nan nan nan nan nan nan nan nan nan nan nan 45 45 45 46 44 44 44 44 43 42 42
nan nan nan nan nan nan nan nan nan 29 31 36 32 27 23 nan nan nan 37 33 30 31 33 32 30 24 27 29 31 33 33 35 nan nan nan nan nan nan nan nan nan nan nan nan 48 45 45 47 47 47 49 49 49 50 49 49 48 48 49 49 nan nan nan nan nan nan nan nan nan nan nan nan nan nan nan nan 40 40 41 41 41 41 41 nan 40 nan
nan nan nan nan nan nan nan nan 27 36 35 31 27 27 22 29 26 31 30 34 33 30 31 30 25 29 28 31 34 33 31 32 35 nan nan nan nan nan nan nan nan nan nan nan nan nan nan 46 47 50 51 51 51 50 50 nan nan 48 nan nan nan nan nan nan nan nan nan nan nan nan nan nan nan nan nan nan 34 nan nan 35 35 35 37 35 nan nan
nan nan nan nan nan nan nan nan 30 30 29 26 23 24 19 nan nan 39 35 34 31 35 33 31 28 25 28 31 36 37 36 34 nan nan nan nan nan nan nan nan nan nan nan nan nan nan nan nan nan nan nan nan nan nan nan nan nan nan nan nan nan nan nan nan nan nan nan nan nan nan nan nan nan nan nan 29 31 31 31 31 32 32 32 32 31 32
nan nan nan nan nan nan nan nan 23 31 29 26 24 23 20 23 20 31 31 30 26 24 39 41 34 35 29 32 38 40 38 37 nan nan nan nan nan nan nan nan nan nan nan nan nan nan nan nan nan nan nan nan nan nan nan nan nan nan nan nan nan nan nan nan nan nan nan nan nan nan nan nan 31 30 28 27 29 30 28 29 28 29 29 30 29 30
nan nan nan nan nan nan nan nan 28 32 29 25 23 23 26 22 17 20 18 26 27 24 26 33 36 36 37 37 36 nan nan nan nan nan nan nan nan nan nan nan nan nan nan nan nan nan nan nan nan nan nan nan nan nan nan nan nan nan nan nan nan nan nan nan nan nan nan nan nan nan nan nan 31 29 27 27 27 26 26 27 26 27 28 28 28 nan
nan nan nan nan nan nan nan 27 32 32 27 23 24 21 22 20 18 17 22 29 29 31 34 35 36 37 36 nan nan nan nan nan nan nan nan nan nan nan nan nan nan nan nan nan nan nan nan nan nan nan nan nan nan nan nan nan nan nan nan nan nan nan nan nan nan nan nan nan nan nan nan nan 28 nan nan 27 27 24 24 25 26 27 28 27 27 nan
nan nan nan nan nan nan 27 36 33 27 24 nan 22 22 20 15 22 26 31 33 34 37 37 37 38 nan nan nan nan nan nan nan nan nan nan nan nan nan nan nan nan nan nan nan nan nan nan nan nan nan nan nan nan nan nan nan nan nan nan nan nan nan nan nan nan nan nan nan nan nan nan nan nan nan nan nan 26 24 nan 24 26 nan nan 26 nan nan
18 nan 18 20 17 nan 31 26 25 23 23 18 nan 19 23 22 31 33 36 38 39 nan nan nan nan nan nan nan nan nan nan nan nan nan nan nan nan nan nan nan nan nan nan nan nan nan nan nan nan nan nan nan nan nan nan nan nan nan nan nan nan nan nan nan nan nan nan nan nan nan nan nan nan nan nan nan nan nan nan nan nan nan nan nan nan nan
18 14 23 21 18 20 24 23 23 24 23 24 26 29 28 33 33 36 36 38 38 nan nan nan nan nan nan nan nan nan nan nan nan nan nan nan nan nan nan nan nan nan nan nan nan nan nan nan nan nan nan nan nan nan nan nan nan nan nan nan nan nan nan nan nan nan nan nan nan nan nan nan nan nan nan nan nan nan nan nan nan nan nan nan nan nan
24 27 26 26 22 23 24 25 26 27 26 26 30 33 34 34 35 37 nan nan nan nan nan nan nan nan nan nan nan nan nan nan nan nan nan nan nan nan nan nan nan nan nan nan nan nan nan nan nan nan nan nan nan nan nan nan nan nan nan nan nan nan nan nan nan nan nan nan nan nan nan nan nan nan nan nan nan nan nan nan nan nan nan nan nan nan
23 29 30 30 29 31 29 26 27 nan nan nan nan nan nan nan nan nan nan nan nan nan nan nan nan nan nan nan nan nan nan nan nan nan nan nan nan nan nan nan nan nan nan nan nan nan nan nan nan nan nan nan nan nan nan nan nan nan nan nan nan nan nan nan nan nan nan nan nan nan nan nan nan nan nan nan nan nan nan nan nan nan nan nan nan nan
17 17 21 20 20 21 23 25 nan nan nan nan nan nan nan nan nan nan nan nan nan nan nan nan nan nan nan nan nan nan nan nan nan nan nan nan nan nan nan nan nan nan nan nan nan nan nan nan nan nan nan nan nan nan nan nan nan nan nan nan nan nan nan nan nan nan nan nan nan nan nan nan nan nan nan nan nan nan nan nan nan nan nan nan nan nan
15 nan 18 18 19 23 28 28 nan nan nan nan nan nan nan nan nan nan nan nan nan nan nan nan nan nan nan nan nan nan nan nan nan nan nan nan nan nan nan nan nan nan nan nan nan nan nan nan nan nan nan nan nan nan nan nan nan nan nan nan nan nan nan nan nan nan nan nan nan nan nan nan nan nan nan nan nan nan nan nan nan nan nan nan nan nan
nan 11 19 22 24 26 30 nan nan nan nan nan nan nan nan nan nan nan nan nan nan nan nan nan nan nan nan nan nan nan nan nan nan nan nan nan nan nan nan nan nan nan nan nan nan nan nan nan nan nan nan nan nan nan nan nan nan nan nan nan nan nan nan nan nan nan nan nan nan nan nan nan nan nan nan nan nan nan nan nan nan nan nan nan nan nan
14 22 24 24 25 23 24 29 nan nan nan nan nan nan nan nan nan nan nan nan nan nan nan nan nan nan nan nan nan nan nan nan nan nan nan nan nan nan nan nan nan nan nan nan nan nan nan nan nan nan nan nan nan nan nan nan nan nan nan nan nan nan nan nan nan nan nan nan nan nan nan nan nan nan nan nan nan nan nan nan nan 23 nan nan nan nan
20 17 14 20 23 25 29 nan 27 nan nan nan nan nan nan nan nan nan nan nan nan nan nan nan nan nan nan nan nan nan nan nan nan nan nan nan nan nan nan nan nan nan nan nan nan nan nan nan nan nan nan nan nan nan nan nan nan nan nan nan nan nan nan nan nan nan nan nan nan nan nan nan nan nan nan nan nan nan nan nan nan nan nan nan nan nan
Wind_Direction
nan nan nan nan nan nan nan nan nan nan nan nan nan nan nan nan nan nan nan 317 324 nan 315 320 nan nan nan 328 348 358 348 325 310 314 346 26 44 35 51 39 34 20 354 351 342 354 357 7 1 3 346 346 341 350 349 349 349 352 18 3 343 340 351 13 24 14 11 7 0 347 347 352 355 355 339 334 330 343 351 351 314 288 318 320 321 341
nan nan nan nan nan nan nan nan nan nan nan nan nan nan nan nan nan nan nan nan 315 nan nan nan 329 329 314 322 346 353 353 338 311 327 344 353 357 24 50 40 32 12 3 349 343 349 347 351 354 16 359 353 343 345 348 349 349 355 1 358 346 336 340 353 21 25 11 6 13 2 346 354 5 360 330 340 339 345 354 344 331 326 328 339 344 332
nan nan nan nan nan nan nan nan nan nan nan nan nan nan nan nan nan 273 287 nan nan nan 317 330 344 334 328 333 342 344 352 320 308 332 327 329 325 9 24 36 31 25 13 346 336 334 347 347 1 3 355 357 353 355 336 342 344 346 354 356 346 339 338 345 0 12 7 3 9 9 9 322 339 33 58 30 11 3 353 342 331 315 323 351 354 335
nan nan nan nan nan nan nan nan nan nan nan nan nan nan nan nan nan nan 304 nan nan nan 327 335 342 nan 321 329 328 330 330 301 284 303 316 325 336 360 349 16 22 20 14 353 331 338 352 356 357 351 349 355 345 340 339 343 336 339 345 341 341 338 336 339 344 357 359 0 7 6 4 350 347 8 9 17 5 352 349 328 333 324 348 351 344 351
nan nan nan nan nan nan nan nan nan nan nan nan nan nan nan nan nan nan 309 325 nan nan nan nan 337 316 319 321 312 298 302 299 313 309 303 301 330 339 326 339 12 7 12 355 338 349 351 350 350 348 349 343 345 343 336 331 330 338 334 335 334 335 334 334 335 343 349 354 357 2 8 10 9 8 4 1 357 355 343 341 343 338 341 345 338 343
nan nan nan nan nan nan nan nan nan nan nan nan nan nan nan nan nan nan nan nan nan nan nan 331 nan 312 317 319 318 315 311 312 313 318 316 319 324 331 320 321 347 7 353 354 338 353 346 350 353 350 350 344 339 339 332 330 336 335 336 337 335 334 334 332 335 341 349 350 0 1 360 355 354 341 336 345 345 343 347 349 351 349 348 346 343 347
nan nan nan nan nan nan nan nan nan nan nan nan nan nan nan nan nan nan nan nan nan nan nan nan nan nan 321 319 323 316 316 314 317 323 322 324 333 316 311 330 340 346 342 336 339 346 351 350 352 347 345 339 338 337 333 335 335 335 338 337 331 334 338 339 336 335 346 346 351 349 343 341 338 323 332 343 343 350 357 357 355 347 348 346 345 346
nan nan nan nan nan nan nan nan nan nan nan nan nan nan nan nan nan nan nan nan nan nan nan nan nan nan 303 310 316 318 316 316 319 321 322 329 333 314 316 328 329 323 329 339 347 347 0 354 347 345 340 338 333 332 333 334 334 334 334 329 331 340 335 334 336 334 338 341 339 339 329 326 319 308 327 334 345 345 354 353 342 344 345 347 341 341
nan nan nan nan nan nan nan nan nan nan nan nan nan nan nan nan nan nan nan nan nan nan nan nan nan 300 301 307 316 312 312 321 325 332 333 331 354 312 312 305 317 302 306 340 358 355 2 353 346 342 337 331 329 330 330 334 332 331 331 331 331 330 332 330 325 327 325 328 330 326 324 315 309 302 302 314 321 331 334 341 332 330 325 331 335 338
nan nan nan nan nan nan nan nan nan nan nan nan nan nan nan nan nan nan nan nan nan nan nan nan nan nan 319 314 320 320 314 316 324 334 344 339 343 297 282 293 316 320 319 353 8 359 351 347 342 336 333 330 328 325 325 326 329 329 328 325 324 324 323 319 313 315 313 312 317 315 311 304 302 299 300 304 309 315 322 322 321 322 323 327 319 315
nan nan nan nan nan nan nan nan nan nan nan nan nan nan nan nan nan nan nan nan nan nan 330 nan nan nan 308 311 309 311 307 307 318 329 334 335 313 303 284 308 328 340 299 353 18 342 340 340 332 329 324 324 326 325 322 321 320 320 322 320 314 313 316 309 305 302 301 304 304 305 299 295 292 289 290 294 298 304 306 307 309 312 315 323 317 312
nan nan nan nan nan nan nan nan nan nan nan nan nan nan nan nan nan nan nan nan nan nan nan nan nan nan nan 295 299 298 301 305 317 327 330 331 314 308 313 329 339 327 314 354 351 331 331 335 329 324 319 321 323 321 316 315 316 316 318 317 313 312 311 310 307 302 301 303 300 300 297 293 295 295 297 294 294 297 299 300 303 306 309 306 307 307
nan nan nan nan nan nan nan nan nan nan nan nan nan nan nan nan nan nan nan nan nan nan nan nan nan nan nan 290 nan 307 320 320 318 321 321 321 313 314 328 331 322 316 328 327 319 305 321 340 327 318 315 317 317 317 316 314 313 314 316 315 314 312 312 312 309 306 302 300 299 299 298 298 299 298 298 297 298 298 301 299 300 297 299 301 299 297
nan nan nan nan nan nan nan nan nan nan nan nan nan nan nan nan nan nan nan nan nan nan nan nan nan nan 283 293 289 299 307 307 315 322 315 317 316 315 319 313 317 315 316 300 292 282 10 344 323 311 312 316 319 314 312 309 311 316 316 317 314 312 314 313 311 307 304 301 300 300 300 301 302 301 300 300 301 301 305 302 300 300 298 299 292 291
nan nan nan nan nan nan nan nan nan nan nan nan nan nan nan nan nan nan nan nan nan nan nan nan nan nan nan 297 289 297 310 309 308 323 315 311 312 310 313 313 308 306 288 290 275 317 1 327 308 310 313 315 317 316 313 312 312 314 313 314 311 311 310 309 308 308 301 300 295 297 298 296 301 300 298 300 302 304 305 306 303 306 300 299 299 299
nan nan nan nan nan nan nan nan nan nan nan nan nan nan nan nan nan nan nan nan nan nan nan nan 288 297 300 311 288 292 293 289 307 316 306 303 304 301 301 297 294 290 279 276 297 330 317 301 300 306 309 310 313 313 316 312 312 310 308 306 305 306 307 306 303 301 299 298 294 291 290 287 292 292 295 295 296 299 303 303 306 304 301 302 303 303
nan nan nan nan nan nan nan nan nan nan nan nan nan nan nan nan nan nan nan nan nan nan nan nan 308 305 294 273 258 263 269 277 293 303 288 275 281 277 274 266 261 257 246 245 250 297 291 285 299 306 307 307 306 309 311 312 310 308 305 301 302 304 305 303 302 298 296 292 287 282 278 280 278 276 273 280 278 283 292 297 303 298 299 299 303 299
nan nan nan nan nan nan nan nan nan nan nan nan nan nan nan nan nan nan nan nan nan nan nan nan nan nan 281 288 282 284 286 286 289 287 270 257 258 249 246 257 258 248 241 229 236 235 283 308 308 306 304 303 305 310 311 310 309 308 306 303 301 302 301 301 300 297 293 286 284 280 276 278 277 277 280 285 285 288 289 292 294 293 293 295 294 289
nan nan nan nan nan nan nan nan nan nan nan nan nan nan nan nan nan nan nan nan nan nan nan nan 279 275 277 295 298 301 298 294 299 303 298 302 308 296 282 284 285 270 262 253 283 334 344 312 299 297 299 302 309 313 315 316 314 310 309 309 308 305 304 301 299 295 293 287 286 284 282 277 282 285 289 289 289 289 289 291 288 287 291 291 287 294
nan nan nan nan nan nan nan nan nan nan nan nan nan nan nan nan nan nan nan nan nan nan nan nan 280 288 295 301 300 300 303 307 311 313 315 319 324 326 320 318 311 310 320 334 341 317 306 nan nan 302 302 301 304 310 309 308 310 312 314 311 308 307 306 303 298 292 289 288 285 284 285 285 287 288 288 288 289 288 290 287 287 288 287 284 290 289
nan nan nan nan nan nan nan nan nan nan nan nan nan nan nan nan nan nan nan nan nan nan nan nan 295 299 293 289 291 300 308 316 317 316 315 318 323 330 335 332 326 323 330 336 325 308 305 296 294 295 299 301 303 304 303 300 298 301 304 302 302 302 298 299 297 295 294 290 287 286 282 281 285 284 288 289 287 289 289 289 287 286 287 290 288 284
nan nan nan nan nan nan nan nan nan nan nan nan nan nan nan nan nan nan nan nan nan nan nan nan 291 296 287 294 294 297 303 310 315 315 317 313 312 318 310 302 305 313 320 331 315 302 301 295 293 299 302 302 302 301 298 298 302 302 304 306 308 303 301 299 295 298 296 295 292 290 284 283 286 285 288 289 291 290 287 289 289 286 286 283 287 288
nan nan nan nan nan nan nan nan nan nan nan nan nan nan nan nan nan nan nan nan nan nan nan nan 291 288 290 286 289 285 294 301 304 306 304 307 312 314 310 310 311 316 321 311 299 297 295 293 293 294 294 292 293 297 297 298 299 299 302 305 309 305 299 nan 295 293 295 295 295 290 288 288 287 285 287 288 291 291 290 287 287 289 286 284 283 283
nan nan nan nan nan nan nan nan nan nan nan nan nan nan nan nan nan nan nan nan nan nan nan 272 282 286 286 290 289 291 297 301 303 303 304 307 311 309 310 310 307 309 310 304 301 300 298 294 292 292 288 285 287 294 298 296 294 296 294 298 296 295 296 295 294 293 292 292 289 285 284 nan 286 287 288 288 290 289 288 288 288 287 287 286 285 282
nan nan nan nan nan nan nan nan nan nan nan nan nan nan nan nan nan nan nan nan nan nan nan 277 283 296 296 291 297 299 301 301 302 302 302 305 308 309 310 310 310 306 303 301 301 301 301 299 298 299 297 295 289 289 293 299 303 304 300 298 295 296 293 nan 297 293 294 295 292 289 288 287 288 288 286 286 288 286 285 285 285 286 282 283 282 283
nan nan nan nan nan nan nan nan 245 nan nan nan nan nan nan nan 238 248 259 nan nan 266 268 280 290 298 300 303 301 299 297 297 299 302 304 305 306 309 308 307 305 302 301 300 298 298 299 300 300 299 298 297 290 289 296 298 298 299 293 293 nan nan nan nan nan 294 295 nan 295 295 292 291 290 288 287 287 286 285 285 285 285 284 283 283 282 281
nan nan nan nan nan nan nan nan nan nan nan nan nan nan nan nan 259 nan 272 nan 285 291 286 287 292 300 307 309 298 299 299 302 305 304 305 305 304 305 304 304 303 300 298 298 300 302 301 300 302 305 306 302 299 296 294 295 295 294 297 296 293 296 295 295 295 296 297 nan nan 295 294 293 291 290 289 288 287 287 286 285 284 284 284 284 283 282
nan nan nan nan nan nan nan nan nan nan nan nan nan nan nan nan nan 278 nan 279 272 nan 288 288 289 298 301 300 303 302 302 303 300 303 303 308 310 307 305 304 302 300 300 301 302 303 302 302 305 308 303 298 296 292 292 294 297 295 292 294 296 297 295 295 294 294 294 294 293 293 290 290 290 291 290 289 289 287 286 285 285 285 285 285 283 282
nan nan nan nan nan nan nan nan nan nan nan nan nan nan 256 254 nan 260 nan 272 273 282 290 296 301 304 314 310 311 312 313 306 314 320 317 313 311 309 310 309 303 303 303 304 306 307 303 303 306 304 301 299 295 294 295 291 293 295 298 301 299 297 296 295 296 294 293 292 291 289 288 289 289 289 288 288 288 287 286 285 284 284 284 283 283 283
nan nan nan nan nan nan nan nan nan nan nan nan nan nan 268 nan nan nan 270 nan nan 293 294 300 300 304 303 304 304 303 307 315 319 316 319 316 316 311 302 306 309 309 311 311 311 306 304 302 301 301 301 296 293 288 289 294 296 295 295 296 295 295 294 294 293 293 292 291 289 289 288 288 288 287 286 286 286 286 285 284 283 282 282 281 281 280
nan nan nan nan nan nan nan nan nan nan nan nan 256 253 249 nan nan nan nan 274 nan nan 292 293 295 299 300 300 305 308 311 311 316 314 313 309 306 305 319 317 314 314 316 310 306 303 302 301 299 295 293 292 292 295 296 296 296 293 293 292 292 292 291 291 291 290 289 288 288 287 286 286 285 284 284 283 283 283 282 281 281 281 280 279 278 278
nan nan nan nan nan nan nan nan nan nan nan nan 259 265 269 269 275 nan nan 276 281 282 280 281 295 297 302 301 303 299 305 311 309 311 317 316 315 310 312 315 315 312 306 304 306 307 303 300 300 299 296 298 299 299 300 297 296 296 294 294 293 293 292 291 290 289 288 286 285 285 283 283 282 282 282 281 280 279 279 279 278 279 278 278 277 277
nan nan nan nan 260 253 nan nan nan nan nan 259 256 272 nan 283 288 293 277 273 277 287 286 289 295 296 302 308 296 299 306 301 299 305 303 303 306 304 306 304 nan 304 nan nan 306 307 306 304 304 305 304 305 305 303 301 299 301 300 298 297 297 295 293 292 291 290 288 286 286 284 nan nan nan 282 281 280 279 279 279 278 277 276 276 275 275 275
nan nan nan nan nan nan nan nan nan nan 271 274 287 278 278 nan nan nan 277 280 283 287 294 296 304 308 306 293 299 308 306 306 308 306 306 309 305 301 nan nan 302 302 302 303 304 305 307 308 306 305 305 305 304 303 303 302 301 301 300 299 298 295 294 293 292 291 290 nan nan nan nan nan nan nan 281 280 278 277 276 275 275 274 274 274 273 272
nan nan nan nan nan nan nan nan nan 281 272 279 273 271 271 277 284 280 273 277 286 293 296 298 299 301 296 295 302 305 307 304 301 298 300 nan nan 305 nan nan nan nan nan 304 304 304 304 303 304 304 303 303 303 303 302 302 301 300 300 298 297 296 295 nan nan nan nan nan nan nan nan nan nan nan nan 279 278 277 276 275 274 273 273 273 272 271
nan nan nan nan nan nan nan nan nan 270 284 282 288 291 285 nan nan nan 279 283 290 291 297 300 300 304 305 305 307 309 308 308 nan nan nan nan nan nan nan nan nan nan nan nan 305 304 302 302 303 302 302 301 301 300 300 299 300 299 299 298 nan nan nan nan nan nan nan nan nan nan nan nan nan nan nan nan 279 278 277 276 275 274 273 nan 272 nan
nan nan nan nan nan nan nan nan 270 283 284 285 283 281 285 289 295 299 300 295 300 304 301 303 309 307 299 307 307 299 299 304 305 nan nan nan nan nan nan nan nan nan nan nan nan nan nan 301 301 301 300 299 299 299 298 nan nan 299 nan nan nan nan nan nan nan nan nan nan nan nan nan nan nan nan nan nan 283 nan nan 277 276 276 277 276 nan nan
nan nan nan nan nan nan nan nan 283 288 283 278 285 287 288 nan nan 291 297 298 301 310 307 299 303 298 308 314 308 308 311 314 nan nan nan nan nan nan nan nan nan nan nan nan nan nan nan nan nan nan nan nan nan nan nan nan nan nan nan nan nan nan nan nan nan nan nan nan nan nan nan nan nan nan nan 288 286 284 283 282 282 281 280 277 276 275
nan nan nan nan nan nan nan nan 267 278 272 279 287 296 297 294 286 299 305 307 306 302 309 314 317 319 320 312 306 315 314 309 nan nan nan nan nan nan nan nan nan nan nan nan nan nan nan nan nan nan nan nan nan nan nan nan nan nan nan nan nan nan nan nan nan nan nan nan nan nan nan nan 292 290 289 289 288 287 286 284 283 282 281 280 280 276
nan nan nan nan nan nan nan nan 272 269 284 292 294 283 282 279 293 299 314 301 302 292 294 304 308 304 304 309 309 nan nan nan nan nan nan nan nan nan nan nan nan nan nan nan nan nan nan nan nan nan nan nan nan nan nan nan nan nan nan nan nan nan nan nan nan nan nan nan nan nan nan nan 292 288 287 288 289 289 288 286 285 281 281 280 278 nan
nan nan nan nan nan nan nan 267 270 276 273 268 273 281 282 292 303 308 295 298 302 302 298 296 295 295 294 nan nan nan nan nan nan nan nan nan nan nan nan nan nan nan nan nan nan nan nan nan nan nan nan nan nan nan nan nan nan nan nan nan nan nan nan nan nan nan nan nan nan nan nan nan 297 nan nan 287 286 287 284 283 282 281 279 280 279 nan
nan nan nan nan nan nan 239 253 257 269 271 nan 279 281 271 300 298 290 292 300 302 294 291 293 297 nan nan nan nan nan nan nan nan nan nan nan nan nan nan nan nan nan nan nan nan nan nan nan nan nan nan nan nan nan nan nan nan nan nan nan nan nan nan nan nan nan nan nan nan nan nan nan nan nan nan nan 285 285 nan 282 279 nan nan 282 nan nan
253 nan 248 243 231 nan 248 258 269 278 274 268 nan 281 265 282 288 294 299 297 293 nan nan nan nan nan nan nan nan nan nan nan nan nan nan nan nan nan nan nan nan nan nan nan nan nan nan nan nan nan nan nan nan nan nan nan nan nan nan nan nan nan nan nan nan nan nan nan nan nan nan nan nan nan nan nan nan nan nan nan nan nan nan nan nan nan
247 256 257 255 249 250 256 269 277 275 271 260 267 277 277 283 292 293 295 294 295 nan nan nan nan nan nan nan nan nan nan nan nan nan nan nan nan nan nan nan nan nan nan nan nan nan nan nan nan nan nan nan nan nan nan nan nan nan nan nan nan nan nan nan nan nan nan nan nan nan nan nan nan nan nan nan nan nan nan nan nan nan nan nan nan nan
247 258 260 266 254 260 269 277 277 279 278 278 282 286 288 287 287 288 nan nan nan nan nan nan nan nan nan nan nan nan nan nan nan nan nan nan nan nan nan nan nan nan nan nan nan nan nan nan nan nan nan nan nan nan nan nan nan nan nan nan nan nan nan nan nan nan nan nan nan nan nan nan nan nan nan nan nan nan nan nan nan nan nan nan nan nan
274 271 274 271 268 269 268 272 279 nan nan nan nan nan nan nan nan nan nan nan nan nan nan nan nan nan nan nan nan nan nan nan nan nan nan nan nan nan nan nan nan nan nan nan nan nan nan nan nan nan nan nan nan nan nan nan nan nan nan nan nan nan nan nan nan nan nan nan nan nan nan nan nan nan nan nan nan nan nan nan nan nan nan nan nan nan
265 279 272 272 295 283 277 283 nan nan nan nan nan nan nan nan nan nan nan nan nan nan nan nan nan nan nan nan nan nan nan nan nan nan nan nan nan nan nan nan nan nan nan nan nan nan nan nan nan nan nan nan nan nan nan nan nan nan nan nan nan nan nan nan nan nan nan nan nan nan nan nan nan nan nan nan nan nan nan nan nan nan nan nan nan nan
260 nan 268 261 271 276 288 287 nan nan nan nan nan nan nan nan nan nan nan nan nan nan nan nan nan nan nan nan nan nan nan nan nan nan nan nan nan nan nan nan nan nan nan nan nan nan nan nan nan nan nan nan nan nan nan nan nan nan nan nan nan nan nan nan nan nan nan nan nan nan nan nan nan nan nan nan nan nan nan nan nan nan nan nan nan nan
nan 271 275 280 280 284 287 nan nan nan nan nan nan nan nan nan nan nan nan nan nan nan nan nan nan nan nan nan nan nan nan nan nan nan nan nan nan nan nan nan nan nan nan nan nan nan nan nan nan nan nan nan nan nan nan nan nan nan nan nan nan nan nan nan nan nan nan nan nan nan nan nan nan nan nan nan nan nan nan nan nan nan nan nan nan nan
259 278 290 295 295 302 299 298 nan nan nan nan nan nan nan nan nan nan nan nan nan nan nan nan nan nan nan nan nan nan nan nan nan nan nan nan nan nan nan nan nan nan nan nan nan nan nan nan nan nan nan nan nan nan nan nan nan nan nan nan nan nan nan nan nan nan nan nan nan nan nan nan nan nan nan nan nan nan nan nan nan 346 nan nan nan nan
263 266 291 304 305 299 298 nan 285 nan nan nan nan nan nan nan nan nan nan nan nan nan nan nan nan nan nan nan nan nan nan nan nan nan nan nan nan nan nan nan nan nan nan nan nan nan nan nan nan nan nan nan nan nan nan nan nan nan nan nan nan nan nan nan nan nan nan nan nan nan nan nan nan nan nan nan nan nan nan nan nan nan nan nan nan nan